| time (UTC) | temp C | wind direction | speed KPH | gust KPH | rain 1hr cm | rain 24hr cm | rain mn cm | humidity % | barometer mb |
| 20260509043551 | 21 | 148 | 0.0 | 4.8 | 0.00 | 0.18 | 0.18 | 83 | 1011.2 |
| 20260509043021 | 21 | 120 | 1.6 | 3.2 | 0.00 | 0.18 | 0.18 | 83 | 1010.9 |
| 20260509042520 | 21 | 134 | 1.6 | 3.2 | 0.00 | 0.18 | 0.18 | 82 | 1011.2 |
| 20260509042021 | 21 | 139 | 1.6 | 6.4 | 0.00 | 0.18 | 0.18 | 82 | 1011.3 |
| 20260509041521 | 21 | 131 | 0.0 | 6.4 | 0.00 | 0.18 | 0.18 | 81 | 1011.3 |
| 20260509041021 | 22 | 243 | 0.0 | 6.4 | 0.00 | 0.18 | 0.18 | 80 | 1011.1 |
| 20260509040520 | 22 | 113 | 3.2 | 8.0 | 0.00 | 0.18 | 0.18 | 80 | 1011.1 |
| 20260509035950 | 22 | 158 | 3.2 | 8.0 | 0.00 | 0.18 | 0.18 | 80 | 1011.6 |
| 20260509035450 | 22 | 145 | 3.2 | 6.4 | 0.00 | 0.18 | 0.18 | 80 | 1011.7 |
| 20260509034949 | 22 | 185 | 3.2 | 6.4 | 0.00 | 0.18 | 0.18 | 79 | 1011.9 |
| 20260509034450 | 22 | 242 | 0.0 | 3.2 | 0.00 | 0.18 | 0.18 | 79 | 1012.4 |
| 20260509033949 | 22 | 135 | 0.0 | 3.2 | 0.00 | 0.18 | 0.18 | 79 | 1012.6 |
| 20260509033449 | 22 | 195 | 0.0 | 3.2 | 0.00 | 0.18 | 0.18 | 78 | 1012.4 |
| 20260509032949 | 22 | 195 | 0.0 | 3.2 | 0.00 | 0.18 | 0.18 | 78 | 1012.1 |
| 20260509032418 | 22 | 145 | 0.0 | 4.8 | 0.00 | 0.18 | 0.18 | 78 | 1011.9 |
| 20260509031919 | 22 | 197 | 3.2 | 4.8 | 0.00 | 0.18 | 0.18 | 78 | 1011.7 |
| 20260509031419 | 22 | 218 | 0.0 | 3.2 | 0.00 | 0.18 | 0.18 | 79 | 1011.7 |
| 20260509030919 | 22 | 167 | 1.6 | 4.8 | 0.00 | 0.18 | 0.18 | 78 | 1011.7 |
| 20260509030418 | 22 | 175 | 1.6 | 4.8 | 0.00 | 0.18 | 0.18 | 78 | 1011.9 |
| 20260509025348 | 22 | 217 | 0.0 | 3.2 | 0.00 | 0.18 | 0.18 | 77 | 1011.6 |
| 20260509024848 | 22 | 179 | 1.6 | 4.8 | 0.00 | 0.18 | 0.18 | 78 | 1011.4 |
| 20260509024348 | 22 | 227 | 1.6 | 6.4 | 0.00 | 0.18 | 0.18 | 77 | 1011.2 |
| 20260509023848 | 22 | 133 | 0.0 | 6.4 | 0.00 | 0.18 | 0.18 | 77 | 1011.1 |
| 20260509022848 | 22 | 89 | 0.0 | 4.8 | 0.00 | 0.18 | 0.18 | 78 | 1010.6 |
| 20260509022317 | 22 | 144 | 3.2 | 6.4 | 0.00 | 0.18 | 0.18 | 77 | 1010.4 |
| 20260509021817 | 22 | 137 | 4.8 | 6.4 | 0.00 | 0.18 | 0.18 | 77 | 1010.2 |
| 20260509021316 | 22 | 169 | 1.6 | 6.4 | 0.00 | 0.18 | 0.18 | 77 | 1010.3 |
| 20260509020817 | 22 | 162 | 1.6 | 6.4 | 0.00 | 0.18 | 0.18 | 77 | 1010.6 |
| 20260509020316 | 22 | 117 | 1.6 | 6.4 | 0.00 | 0.18 | 0.18 | 77 | 1010.3 |
| 20260509015816 | 22 | 115 | 0.0 | 6.4 | 0.00 | 0.18 | 0.18 | 77 | 1010.4 |
| 20260509015246 | 22 | 127 | 4.8 | 4.8 | 0.00 | 0.18 | 0.18 | 77 | 1010.3 |
| 20260509014746 | 22 | 131 | 0.0 | 3.2 | 0.00 | 0.18 | 0.18 | 76 | 1010.4 |
| 20260509014246 | 22 | 128 | 0.0 | 3.2 | 0.00 | 0.18 | 0.18 | 76 | 1010.2 |
| 20260509013746 | 22 | 183 | 0.0 | 3.2 | 0.00 | 0.18 | 0.18 | 76 | 1010.2 |
| 20260509012746 | 22 | 116 | 0.0 | 3.2 | 0.00 | 0.18 | 0.18 | 75 | 1010.3 |
| 20260509012216 | 22 | 89 | 0.0 | 4.8 | 0.00 | 0.18 | 0.18 | 75 | 1010.3 |
| 20260509011716 | 22 | 144 | 1.6 | 4.8 | 0.00 | 0.18 | 0.18 | 74 | 1010.2 |
| 20260509011214 | 22 | 189 | 3.2 | 6.4 | 0.00 | 0.18 | 0.18 | 74 | 1010.2 |
| 20260509010715 | 23 | 161 | 1.6 | 6.4 | 0.00 | 0.18 | 0.18 | 73 | 1010.1 |
| 20260509010214 | 23 | 165 | 1.6 | 4.8 | 0.00 | 0.18 | 0.18 | 73 | 1010.2 |
| 20260509005215 | 23 | 107 | 1.6 | 4.8 | 0.00 | 0.18 | 0.18 | 72 | 1009.7 |
| 20260509004644 | 23 | 283 | 0.0 | 6.4 | 0.00 | 0.18 | 0.18 | 72 | 1009.9 |
| 20260509004143 | 23 | 128 | 1.6 | 6.4 | 0.00 | 0.18 | 0.18 | 72 | 1009.7 |
| 20260509003643 | 23 | 215 | 3.2 | 4.8 | 0.00 | 0.18 | 0.18 | 71 | 1009.6 |
| 20260509003143 | 23 | 102 | 3.2 | 6.4 | 0.00 | 0.18 | 0.18 | 71 | 1009.5 |
| 20260509002643 | 23 | 135 | 3.2 | 6.4 | 0.00 | 0.18 | 0.18 | 71 | 1009.6 |
| 20260509002143 | 23 | 100 | 0.0 | 6.4 | 0.00 | 0.18 | 0.18 | 70 | 1009.7 |
| 20260509001113 | 23 | 215 | 3.2 | 9.7 | 0.00 | 0.18 | 0.18 | 69 | 1009.6 |
| 20260509000613 | 23 | 125 | 3.2 | 6.4 | 0.00 | 0.18 | 0.18 | 69 | 1009.7 |
| 20260509000113 | 23 | 115 | 3.2 | 14.5 | 0.00 | 0.18 | 0.18 | 70 | 1009.7 |
| 20260508235613 | 23 | 164 | 1.6 | 14.5 | 0.00 | 0.18 | 0.18 | 70 | 1009.8 |
| 20260508235113 | 24 | 239 | 0.0 | 3.2 | 0.00 | 0.18 | 0.18 | 68 | 1009.8 |
| 20260508234543 | 24 | 239 | 0.0 | 9.7 | 0.00 | 0.18 | 0.18 | 68 | 1010.1 |
| 20260508233542 | 24 | 123 | 3.2 | 9.7 | 0.00 | 0.18 | 0.18 | 68 | 1009.9 |
| 20260508233041 | 24 | 141 | 6.4 | 8.0 | 0.00 | 0.18 | 0.18 | 67 | 1010.0 |
| 20260508232541 | 25 | 158 | 1.6 | 8.0 | 0.00 | 0.18 | 0.18 | 66 | 1010.0 |
| 20260508232041 | 24 | 168 | 1.6 | 8.0 | 0.00 | 0.18 | 0.18 | 67 | 1010.2 |
| 20260508231511 | 25 | 169 | 4.8 | 4.8 | 0.00 | 0.18 | 0.18 | 67 | 1010.1 |
| 20260508231010 | 25 | 89 | 1.6 | 6.4 | 0.00 | 0.18 | 0.18 | 66 | 1010.1 |
| 20260508230510 | 25 | 4 | 3.2 | 6.4 | 0.00 | 0.18 | 0.18 | 66 | 1010.0 |
| 20260508230010 | 25 | 85 | 0.0 | 4.8 | 0.00 | 0.18 | 0.18 | 65 | 1010.3 |
| 20260508225510 | 25 | 75 | 3.2 | 4.8 | 0.00 | 0.18 | 0.18 | 64 | 1010.2 |
| 20260508225010 | 26 | 128 | 1.6 | 4.8 | 0.00 | 0.18 | 0.18 | 65 | 1010.1 |
| 20260508224440 | 26 | 147 | 0.0 | 4.8 | 0.00 | 0.18 | 0.18 | 64 | 1010.1 |
| 20260508223940 | 26 | 47 | 3.2 | 4.8 | 0.00 | 0.18 | 0.18 | 64 | 1010.1 |
| 20260508223439 | 26 | 155 | 1.6 | 3.2 | 0.00 | 0.18 | 0.18 | 64 | 1010.2 |
| 20260508222940 | 26 | 122 | 0.0 | 4.8 | 0.00 | 0.18 | 0.18 | 63 | 1010.0 |
| 20260508222439 | 26 | 251 | 0.0 | 4.8 | 0.00 | 0.18 | 0.18 | 63 | 1010.1 |
| 20260508221939 | 27 | 311 | 0.0 | 4.8 | 0.00 | 0.18 | 0.18 | 62 | 1010.0 |
| 20260508221410 | 27 | 311 | 0.0 | 6.4 | 0.00 | 0.18 | 0.18 | 62 | 1009.9 |
| 20260508220909 | 27 | 311 | 0.0 | 6.4 | 0.00 | 0.18 | 0.18 | 62 | 1009.8 |
| 20260508220409 | 27 | 61 | 1.6 | 3.2 | 0.00 | 0.18 | 0.18 | 62 | 1009.9 |
| 20260508215909 | 27 | 286 | 0.0 | 4.8 | 0.00 | 0.18 | 0.18 | 59 | 1010.0 |
| 20260508215409 | 27 | 189 | 0.0 | 4.8 | 0.00 | 0.18 | 0.18 | 62 | 1009.8 |
| 20260508214910 | 26 | 340 | 3.2 | 6.4 | 0.00 | 0.18 | 0.18 | 63 | 1009.8 |
| 20260508214409 | 26 | 22 | 0.0 | 6.4 | 0.00 | 0.18 | 0.18 | 63 | 1010.0 |
| 20260508213838 | 26 | 125 | 3.2 | 4.8 | 0.00 | 0.18 | 0.18 | 62 | 1009.8 |
| 20260508213338 | 26 | 125 | 3.2 | 8.0 | 0.00 | 0.18 | 0.18 | 64 | 1009.8 |
| 20260508212839 | 25 | 164 | 3.2 | 8.0 | 0.00 | 0.18 | 0.18 | 65 | 1010.1 |
| 20260508211838 | 25 | 116 | 0.0 | 8.0 | 0.00 | 0.18 | 0.18 | 65 | 1010.2 |
| 20260508211337 | 26 | 133 | 4.8 | 8.0 | 0.00 | 0.18 | 0.18 | 64 | 1010.4 |
| 20260508210807 | 26 | 212 | 3.2 | 8.0 | 0.00 | 0.18 | 0.18 | 64 | 1010.9 |
| 20260508210307 | 26 | 130 | 1.6 | 4.8 | 0.00 | 0.18 | 0.18 | 64 | 1011.2 |
| 20260508205807 | 25 | 225 | 1.6 | 4.8 | 0.00 | 0.18 | 0.18 | 65 | 1011.3 |
| 20260508204307 | 25 | 336 | 0.0 | 4.8 | 0.00 | 0.18 | 0.18 | 63 | 1011.8 |
| 20260508203736 | 25 | 157 | 0.0 | 6.4 | 0.00 | 0.18 | 0.18 | 64 | 1011.8 |
| 20260508203236 | 25 | 170 | 1.6 | 6.4 | 0.00 | 0.18 | 0.18 | 62 | 1012.0 |
| 20260508202736 | 25 | 135 | 1.6 | 3.2 | 0.00 | 0.18 | 0.18 | 62 | 1012.0 |
| 20260508202236 | 26 | 76 | 0.0 | 3.2 | 0.00 | 0.18 | 0.18 | 62 | 1012.0 |
| 20260508201236 | 26 | 255 | 0.0 | 6.4 | 0.00 | 0.18 | 0.18 | 61 | 1012.0 |
| 20260508200705 | 26 | 77 | 0.0 | 4.8 | 0.00 | 0.18 | 0.18 | 59 | 1011.9 |
| 20260508200205 | 27 | 91 | 0.0 | 4.8 | 0.00 | 0.18 | 0.18 | 58 | 1012.0 |
| 20260508195705 | 27 | 226 | 0.0 | 4.8 | 0.00 | 0.18 | 0.18 | 58 | 1012.0 |
| 20260508195205 | 27 | 291 | 3.2 | 4.8 | 0.00 | 0.18 | 0.18 | 58 | 1012.3 |
| 20260508194705 | 27 | 248 | 3.2 | 4.8 | 0.00 | 0.18 | 0.18 | 59 | 1012.0 |
| 20260508194204 | 27 | 36 | 1.6 | 4.8 | 0.00 | 0.18 | 0.18 | 59 | 1012.1 |
| 20260508193634 | 26 | 117 | 0.0 | 3.2 | 0.00 | 0.18 | 0.18 | 61 | 1012.1 |
| 20260508193135 | 27 | 75 | 0.0 | 9.7 | 0.00 | 0.18 | 0.18 | 57 | 1012.2 |
| 20260508192634 | 27 | 118 | 4.8 | 9.7 | 0.00 | 0.18 | 0.18 | 59 | 1012.2 |
| 20260508192134 | 26 | 57 | 3.2 | 4.8 | 0.00 | 0.18 | 0.18 | 60 | 1012.3 |
| 20260508191634 | 27 | 268 | 0.0 | 8.0 | 0.00 | 0.18 | 0.18 | 56 | 1012.4 |
| 20260508191134 | 27 | 141 | 0.0 | 8.0 | 0.00 | 0.18 | 0.18 | 59 | 1012.4 |
| 20260508190633 | 27 | 98 | 3.2 | 6.4 | 0.00 | 0.18 | 0.18 | 57 | 1012.2 |
| 20260508190103 | 27 | 81 | 3.2 | 3.2 | 0.00 | 0.18 | 0.18 | 57 | 1012.3 |
| 20260508185603 | 27 | 154 | 0.0 | 3.2 | 0.00 | 0.18 | 0.18 | 57 | 1012.4 |
| 20260508185103 | 27 | 35 | 0.0 | 3.2 | 0.00 | 0.18 | 0.18 | 56 | 1012.4 |
| 20260508184603 | 27 | 275 | 1.6 | 3.2 | 0.00 | 0.18 | 0.18 | 55 | 1012.3 |
| 20260508183602 | 27 | 126 | 1.6 | 4.8 | 0.00 | 0.18 | 0.18 | 57 | 1012.5 |
| 20260508183032 | 27 | 336 | 0.0 | 4.8 | 0.00 | 0.18 | 0.18 | 60 | 1012.6 |
| 20260508182532 | 26 | 182 | 3.2 | 8.0 | 0.00 | 0.18 | 0.18 | 61 | 1012.8 |
| 20260508182032 | 25 | 138 | 1.6 | 8.0 | 0.00 | 0.18 | 0.18 | 59 | 1013.0 |
| 20260508181532 | 26 | 17 | 1.6 | 4.8 | 0.00 | 0.18 | 0.18 | 56 | 1012.9 |
| 20260508181032 | 26 | 280 | 1.6 | 6.4 | 0.00 | 0.18 | 0.18 | 58 | 1013.1 |
| 20260508180532 | 25 | 189 | 4.8 | 6.4 | 0.00 | 0.18 | 0.18 | 59 | 1013.4 |
| 20260508180002 | 25 | 200 | 3.2 | 6.4 | 0.00 | 0.18 | 0.18 | 60 | 1013.2 |
| 20260508175502 | 25 | 125 | 4.8 | 6.4 | 0.00 | 0.18 | 0.18 | 60 | 1013.5 |
| 20260508175001 | 26 | 179 | 3.2 | 4.8 | 0.00 | 0.18 | 0.18 | 59 | 1013.7 |
| 20260508174501 | 26 | 136 | 3.2 | 6.4 | 0.00 | 0.18 | 0.18 | 60 | 1013.5 |
| 20260508174002 | 25 | 222 | 0.0 | 9.7 | 0.00 | 0.18 | 0.18 | 62 | 1013.5 |
| 20260508173501 | 24 | 134 | 6.4 | 9.7 | 0.00 | 0.18 | 0.18 | 62 | 1013.6 |
| 20260508172930 | 24 | 102 | 1.6 | 11.3 | 0.00 | 0.18 | 0.18 | 61 | 1013.5 |
| 20260508171930 | 24 | 143 | 0.0 | 8.0 | 0.00 | 0.18 | 0.18 | 61 | 1014.0 |
| 20260508171430 | 24 | 298 | 3.2 | 6.4 | 0.00 | 0.18 | 0.18 | 61 | 1014.2 |
| 20260508170930 | 25 | 116 | 1.6 | 9.7 | 0.00 | 0.18 | 0.18 | 63 | 1014.2 |
| 20260508165859 | 23 | 191 | 6.4 | 6.4 | 0.00 | 0.18 | 0.18 | 64 | 1014.4 |
| 20260508165359 | 23 | 117 | 0.0 | 6.4 | 0.00 | 0.18 | 0.18 | 65 | 1014.6 |
| 20260508164859 | 23 | 134 | 4.8 | 6.4 | 0.00 | 0.18 | 0.18 | 64 | 1014.7 |
| 20260508163859 | 22 | 125 | 1.6 | 9.7 | 0.00 | 0.18 | 0.18 | 65 | 1014.9 |
| 20260508163359 | 22 | 147 | 0.0 | 9.7 | 0.00 | 0.18 | 0.18 | 65 | 1015.0 |
| 20260508162828 | 22 | 102 | 3.2 | 8.0 | 0.00 | 0.18 | 0.18 | 66 | 1015.1 |
| 20260508162328 | 22 | 73 | 0.0 | 9.7 | 0.00 | 0.18 | 0.18 | 67 | 1015.2 |
| 20260508161828 | 21 | 208 | 0.0 | 9.7 | 0.00 | 0.18 | 0.18 | 67 | 1015.2 |
| 20260508161328 | 22 | 131 | 1.6 | 9.7 | 0.00 | 0.18 | 0.18 | 67 | 1015.2 |
| 20260508160828 | 21 | 111 | 3.2 | 9.7 | 0.00 | 0.18 | 0.18 | 65 | 1015.4 |
| 20260508160328 | 21 | 139 | 1.6 | 9.7 | 0.00 | 0.18 | 0.18 | 66 | 1015.4 |
| 20260508155827 | 21 | 89 | 3.2 | 9.7 | 0.00 | 0.18 | 0.18 | 68 | 1015.4 |
| 20260508155327 | 21 | 104 | 3.2 | 8.0 | 0.00 | 0.18 | 0.18 | 65 | 1015.4 |
| 20260508154757 | 21 | 111 | 4.8 | 6.4 | 0.00 | 0.18 | 0.18 | 66 | 1015.7 |
| 20260508153756 | 21 | 50 | 1.6 | 6.4 | 0.00 | 0.18 | 0.18 | 69 | 1015.7 |
| 20260508153257 | 20 | 35 | 3.2 | 6.4 | 0.00 | 0.18 | 0.18 | 69 | 1015.5 |
| 20260508152757 | 20 | 114 | 3.2 | 4.8 | 0.00 | 0.18 | 0.18 | 70 | 1015.8 |
| 20260508152227 | 21 | 122 | 0.0 | 4.8 | 0.00 | 0.18 | 0.18 | 75 | 1015.7 |
| 20260508151726 | 20 | 135 | 3.2 | 4.8 | 0.00 | 0.18 | 0.18 | 73 | 1015.9 |
| 20260508151226 | 20 | 117 | 0.0 | 6.4 | 0.00 | 0.18 | 0.18 | 72 | 1016.0 |
| 20260508150727 | 20 | 131 | 1.6 | 6.4 | 0.00 | 0.18 | 0.18 | 74 | 1015.8 |
| 20260508150226 | 20 | 119 | 3.2 | 4.8 | 0.00 | 0.18 | 0.18 | 70 | 1015.8 |
| 20260508145726 | 20 | 173 | 0.0 | 8.0 | 0.00 | 0.18 | 0.18 | 76 | 1015.9 |
| 20260508145156 | 20 | 147 | 0.0 | 8.0 | 0.00 | 0.18 | 0.18 | 73 | 1015.9 |
| 20260508144655 | 20 | 161 | 4.8 | 6.4 | 0.00 | 0.18 | 0.18 | 76 | 1015.7 |
| 20260508144155 | 20 | 176 | 3.2 | 11.3 | 0.00 | 0.18 | 0.18 | 77 | 1015.7 |
| 20260508143655 | 19 | 105 | 3.2 | 11.3 | 0.00 | 0.15 | 0.15 | 76 | 1016.0 |
| 20260508143156 | 20 | 117 | 9.7 | 11.3 | 0.00 | 0.15 | 0.15 | 72 | 1015.7 |
| 20260508142124 | 20 | 103 | 1.6 | 8.0 | 0.00 | 0.15 | 0.15 | 75 | 1016.0 |
| 20260508141625 | 18 | 127 | 4.8 | 8.0 | 0.00 | 0.15 | 0.15 | 76 | 1015.7 |
| 20260508141125 | 18 | 37 | 3.2 | 6.4 | 0.00 | 0.15 | 0.15 | 80 | 1016.1 |
| 20260508140624 | 18 | 208 | 1.6 | 6.4 | 0.00 | 0.15 | 0.15 | 79 | 1016.0 |
| 20260508140123 | 18 | 157 | 1.6 | 8.0 | 0.00 | 0.15 | 0.15 | 82 | 1015.9 |
| 20260508135625 | 17 | 148 | 3.2 | 8.0 | 0.00 | 0.15 | 0.15 | 81 | 1015.8 |
| 20260508135054 | 17 | 136 | 4.8 | 8.0 | 0.00 | 0.15 | 0.15 | 81 | 1016.0 |
| 20260508134554 | 17 | 151 | 4.8 | 6.4 | 0.03 | 0.15 | 0.15 | 85 | 1016.1 |
| 20260508134054 | 17 | 149 | 3.2 | 6.4 | 0.05 | 0.15 | 0.15 | 85 | 1015.9 |
| 20260508133553 | 18 | 182 | 1.6 | 6.4 | 0.05 | 0.15 | 0.15 | 84 | 1016.0 |
| 20260508133052 | 17 | 143 | 4.8 | 4.8 | 0.05 | 0.15 | 0.15 | 88 | 1016.0 |
| 20260508131522 | 16 | 120 | 0.0 | 4.8 | 0.05 | 0.15 | 0.15 | 92 | 1015.9 |
| 20260508130022 | 16 | 139 | 3.2 | 3.2 | 0.05 | 0.15 | 0.15 | 91 | 1016.3 |
| 20260508125022 | 16 | 129 | 3.2 | 6.4 | 0.03 | 0.15 | 0.15 | 89 | 1016.4 |
| 20260508124521 | 16 | 182 | 3.2 | 6.4 | 0.00 | 0.13 | 0.13 | 90 | 1016.0 |
| 20260508123952 | 16 | 143 | 1.6 | 3.2 | 0.00 | 0.13 | 0.13 | 91 | 1016.3 |
| 20260508123451 | 16 | 50 | 0.0 | 3.2 | 0.00 | 0.13 | 0.13 | 91 | 1016.5 |
| 20260508122451 | 16 | 131 | 1.6 | 4.8 | 0.00 | 0.13 | 0.13 | 90 | 1016.1 |
| 20260508121421 | 16 | 154 | 1.6 | 6.4 | 0.00 | 0.13 | 0.13 | 92 | 1016.2 |
| 20260508120921 | 16 | 175 | 0.0 | 6.4 | 0.00 | 0.13 | 0.13 | 92 | 1016.2 |
| 20260508120420 | 16 | 106 | 4.8 | 6.4 | 0.00 | 0.13 | 0.13 | 92 | 1016.0 |
| 20260508115919 | 16 | 145 | 3.2 | 4.8 | 0.00 | 0.13 | 0.13 | 92 | 1016.3 |
| 20260508115419 | 16 | 128 | 1.6 | 6.4 | 0.00 | 0.13 | 0.13 | 93 | 1016.6 |
| 20260508113850 | 16 | 134 | 3.2 | 4.8 | 0.00 | 0.13 | 0.13 | 94 | 1016.3 |
| 20260508113350 | 16 | 125 | 3.2 | 3.2 | 0.00 | 0.13 | 0.13 | 94 | 1016.2 |
| 20260508112349 | 16 | 299 | 0.0 | 8.0 | 0.00 | 0.13 | 0.13 | 94 | 1015.9 |
| 20260508111848 | 16 | 164 | 3.2 | 8.0 | 0.00 | 0.13 | 0.13 | 94 | 1015.7 |
| 20260508111349 | 16 | 192 | 3.2 | 6.4 | 0.00 | 0.10 | 0.10 | 94 | 1015.9 |
| 20260508110818 | 16 | 171 | 1.6 | 6.4 | 0.00 | 0.10 | 0.10 | 94 | 1016.3 |
| 20260508110318 | 16 | 139 | 3.2 | 6.4 | 0.00 | 0.10 | 0.10 | 93 | 1016.5 |
| 20260508105819 | 16 | 332 | 0.0 | 3.2 | 0.00 | 0.10 | 0.10 | 93 | 1017.1 |
| 20260508105318 | 16 | 16 | 3.2 | 3.2 | 0.00 | 0.10 | 0.10 | 93 | 1016.5 |
| 20260508104818 | 16 | 134 | 1.6 | 4.8 | 0.00 | 0.10 | 0.10 | 93 | 1016.2 |
| 20260508103748 | 16 | 34 | 3.2 | 4.8 | 0.00 | 0.10 | 0.10 | 93 | 1016.8 |
| 20260508103248 | 15 | 115 | 0.0 | 3.2 | 0.00 | 0.10 | 0.10 | 94 | 1015.7 |
| 20260508102747 | 15 | 141 | 0.0 | 4.8 | 0.00 | 0.10 | 0.10 | 94 | 1015.5 |
| 20260508102247 | 15 | 141 | 0.0 | 4.8 | 0.00 | 0.10 | 0.10 | 94 | 1015.5 |
| 20260508101747 | 15 | 36 | 0.0 | 3.2 | 0.00 | 0.10 | 0.10 | 95 | 1015.7 |
| 20260508101246 | 15 | 160 | 0.0 | 3.2 | 0.00 | 0.10 | 0.10 | 95 | 1015.1 |
| 20260508100717 | 15 | 111 | 1.6 | 3.2 | 0.00 | 0.10 | 0.10 | 95 | 1015.1 |
| 20260508100217 | 16 | 114 | 0.0 | 3.2 | 0.03 | 0.10 | 0.10 | 95 | 1015.1 |
| 20260508095717 | 16 | 119 | 0.0 | 3.2 | 0.03 | 0.10 | 0.10 | 95 | 1015.3 |
| 20260508095216 | 16 | 124 | 0.0 | 3.2 | 0.05 | 0.10 | 0.10 | 95 | 1015.2 |
| 20260508094216 | 16 | 125 | 1.6 | 3.2 | 0.05 | 0.10 | 0.10 | 95 | 1015.3 |
| 20260508093145 | 16 | 154 | 0.0 | 3.2 | 0.05 | 0.10 | 0.10 | 95 | 1015.7 |
| 20260508091145 | 16 | 144 | 0.0 | 1.6 | 0.05 | 0.10 | 0.10 | 94 | 1015.5 |
| 20260508090615 | 16 | 149 | 0.0 | 3.2 | 0.08 | 0.10 | 0.10 | 93 | 1015.7 |
| 20260508090115 | 15 | 150 | 0.0 | 3.2 | 0.05 | 0.08 | 0.08 | 93 | 1015.5 |
| 20260508085614 | 15 | 133 | 1.6 | 6.4 | 0.03 | 0.08 | 0.08 | 93 | 1016.0 |
| 20260508085115 | 15 | 296 | 0.0 | 6.4 | 0.03 | 0.08 | 0.08 | 93 | 1016.0 |
| 20260508084114 | 15 | 99 | 1.6 | 9.7 | 0.05 | 0.08 | 0.08 | 93 | 1015.5 |
| 20260508083544 | 15 | 132 | 6.4 | 9.7 | 0.08 | 0.08 | 0.08 | 93 | 1015.1 |
| 20260508083044 | 15 | 166 | 4.8 | 8.0 | 0.08 | 0.08 | 0.08 | 93 | 1015.7 |
| 20260508082543 | 15 | 120 | 0.0 | 3.2 | 0.05 | 0.05 | 0.05 | 93 | 1016.1 |
| 20260508082044 | 15 | 132 | 1.6 | 3.2 | 0.05 | 0.05 | 0.05 | 92 | 1016.5 |
| 20260508081543 | 16 | 135 | 0.0 | 6.4 | 0.05 | 0.05 | 0.05 | 92 | 1016.4 |
| 20260508081043 | 16 | 124 | 0.0 | 6.4 | 0.05 | 0.05 | 0.05 | 92 | 1016.3 |
| 20260508080542 | 15 | 180 | 3.2 | 4.8 | 0.05 | 0.05 | 0.05 | 91 | 1016.5 |
| 20260508080013 | 16 | 123 | 3.2 | 3.2 | 0.05 | 0.05 | 0.05 | 90 | 1017.0 |
| 20260508075012 | 16 | 88 | 0.0 | 3.2 | 0.05 | 0.05 | 0.05 | 89 | 1017.5 |
| 20260508074512 | 16 | 173 | 0.0 | 3.2 | 0.05 | 0.05 | 0.05 | 89 | 1017.1 |
| 20260508074012 | 16 | 97 | 0.0 | 3.2 | 0.00 | 0.00 | 0.00 | 88 | 1017.0 |
| 20260508073512 | 16 | 0 | 0.0 | 1.6 | 0.00 | 0.00 | 0.00 | 87 | 1016.8 |
| 20260508072942 | 16 | 124 | 0.0 | 0.0 | 0.00 | 0.00 | 0.00 | 87 | 1016.5 |
| 20260508072441 | 15 | 157 | 0.0 | 3.2 | 0.00 | 0.00 | 0.00 | 87 | 1016.5 |
| 20260508071943 | 15 | 37 | 0.0 | 3.2 | 0.00 | 0.00 | 0.00 | 86 | 1016.8 |
| 20260508071441 | 16 | 150 | 0.0 | 0.0 | 0.00 | 0.00 | 0.00 | 86 | 1016.6 |
| 20260508070941 | 16 | 124 | 0.0 | 1.6 | 0.00 | 0.00 | 0.00 | 86 | 1016.8 |
| 20260508070440 | 16 | 6 | 0.0 | 3.2 | 0.00 | 0.00 | 0.00 | 85 | 1016.9 |
| 20260508065411 | 16 | 130 | 1.6 | 3.2 | 0.00 | 0.00 | 0.00 | 85 | 1016.5 |
| 20260508064910 | 15 | 132 | 3.2 | 3.2 | 0.00 | 0.00 | 0.00 | 85 | 1017.0 |
| 20260508064410 | 15 | 180 | 0.0 | 1.6 | 0.00 | 0.00 | 0.00 | 85 | 1017.3 |
| 20260508063910 | 15 | 40 | 0.0 | 1.6 | 0.00 | 0.00 | 0.00 | 86 | 1017.3 |
| 20260508063410 | 15 | 42 | 0.0 | 0.0 | 0.00 | 0.00 | 0.00 | 86 | 1017.2 |
| 20260508062340 | 15 | 131 | 0.0 | 1.6 | 0.00 | 0.00 | 0.00 | 86 | 1017.4 |
| 20260508061839 | 15 | 224 | 0.0 | 0.0 | 0.00 | 0.00 | 0.00 | 86 | 1017.7 |
| 20260508061340 | 15 | 224 | 0.0 | 1.6 | 0.00 | 0.00 | 0.00 | 86 | 1017.4 |
| 20260508060839 | 15 | 22 | 0.0 | 3.2 | 0.00 | 0.00 | 0.00 | 86 | 1017.3 |
| 20260508055310 | 15 | 142 | 0.0 | 0.0 | 0.00 | 0.00 | 0.00 | 86 | 1017.6 |
| 20260508054808 | 15 | 129 | 0.0 | 3.2 | 0.00 | 0.00 | 0.00 | 86 | 1017.2 |
| 20260508054308 | 15 | 159 | 0.0 | 3.2 | 0.00 | 0.00 | 0.00 | 86 | 1017.2 |
| 20260508053808 | 15 | 138 | 0.0 | 3.2 | 0.00 | 0.00 | 0.00 | 86 | 1017.4 |
| 20260508052808 | 15 | 133 | 0.0 | 0.0 | 0.00 | 0.00 | 0.00 | 84 | 1017.6 |
| 20260508052237 | 15 | 66 | 0.0 | 0.0 | 0.00 | 0.00 | 0.00 | 84 | 1017.5 |
| 20260508051738 | 16 | 50 | 0.0 | 0.0 | 0.00 | 0.00 | 0.00 | 84 | 1017.5 |
| 20260508051237 | 16 | 147 | 0.0 | 0.0 | 0.00 | 0.00 | 0.00 | 84 | 1017.3 |
| 20260508050738 | 16 | 150 | 0.0 | 1.6 | 0.00 | 0.00 | 0.00 | 84 | 1017.4 |
| 20260508050237 | 16 | 135 | 0.0 | 1.6 | 0.00 | 0.00 | 0.00 | 83 | 1017.3 |
| 20260508045737 | 16 | 32 | 0.0 | 0.0 | 0.00 | 0.00 | 0.00 | 82 | 1017.3 |
| 20260508045206 | 16 | 32 | 0.0 | 1.6 | 0.00 | 0.00 | 0.00 | 82 | 1017.5 |
| 20260508044707 | 16 | 32 | 0.0 | 1.6 | 0.00 | 0.00 | 0.00 | 82 | 1017.3 |
| 20260508044206 | 16 | 230 | 0.0 | 0.0 | 0.00 | 0.00 | 0.00 | 81 | 1017.4 |